Weather observations for the past three days for
Takotna, Tatalina LRRS Airport
Metric (Imperial)
Date Time (akdt) Wind (kph) Vis. (km) Weather Sky Cond. Temperature (ºC) Relative Humidity Wind Chill (°C) Heat Index (°C) Pressure Precipitation (cm)
Air Dwpt 6 hour altimeter (cm) sea level (mb) 1 hr 3 hr 6 hr
Max. Min.
31 06:55 NE 15 14.48 Mostly Cloudy BKN009 1 0.3 95% -3 75.82 1011.7
31 05:55 Vrbl 11 16.09 Mostly Cloudy BKN014 1 1 100% -2 75.79 1011.4
31 04:55 NE 13 16.09 Light Showers Rain BKN010 2 1 93% -1 75.77 1011.0
31 03:55 Vrbl 6 16.09 Partly Cloudy SCT021 1.6 0.9 6.1 1.7 95% 75.72 1010.2 0.56
31 02:55 Vrbl 11 16.09 Mostly Cloudy BKN011 BKN031 2 2 100% -1 75.72 1010.1
31 01:55 Vrbl 9 16.09 Mostly Cloudy BKN016 3 2 93% 1 75.67 1009.6
31 00:55 Vrbl 7 16.09 Mostly Cloudy FEW021 SCT085 BKN130 2.3 1.8 97% 0 75.64 1009.2 0.15 0.56
30 23:55 NE 24 G 37 9.66 Rain BKN014 3 3 100% -2 75.64 1009.1 0.41
30 21:55 Vrbl 9 16.09 Mostly Cloudy BKN180 5.8 4.7 8.9 6 93% 4 75.62 1008.6 0.33
30 20:55 NE 2 16.09 Mostly Cloudy FEW025 SCT095 BKN110 7 7 100% 75.64 1008.9
30 19:55 Vrbl 6 16.09 Mostly Cloudy BKN100 BKN140 7 7 100% 75.67 1009.4
30 18:55 Vrbl 4 16.09 Mostly Cloudy BKN046 6.9 6.7 99% 75.72 1010.0 0.33
30 17:55 Vrbl 2 16.09 Light Showers Rain OVC049 7 6 93% 75.77 1010.7 0.1
30 16:55 Vrbl 7 16.09 Rain OVC032 7 6 93% 6 75.82 1011.3 0.23
30 15:55 NE 15 16.09 Light Showers Rain BKN017 8.8 8.1 8.9 8 95% 7 75.87 1011.7 0.1
30 14:55 NE 15 16.09 Light Rain BKN009 9 8 94% 7 75.9 1012.3 0.08
30 13:55 NE 19 14.48 Light Rain BKN008 9 8 94% 7 75.95 1013.1 0.03
30 12:55 NE 17 9.66 Light Showers Rain OVC005 8.2 7.9 98% 6 76 1013.7
30 11:55 NE 19 6.44 Light Showers Rain BKN005 8 8 100% 5 76.02 1014.1
30 10:55 NE 19 16.09 Overcast OVC010 8 7 93% 5 76.07 1014.6
30 09:55 NE 19 16.09 Overcast OVC010 8.2 6.9 9.9 8 92% 6 76.07 1014.7
30 08:55 NE 20 16.09 Mostly Cloudy BKN012 8 7 93% 5 76.1 1015.0
30 07:55 NE 19 9.66 Mostly Cloudy BKN013 9 7 87% 7 76.15 1015.6
30 05:55 NE 24 16.09 Mostly Cloudy BKN014 10 7 82% 7 76.2 1015.9
30 04:55 NE 26 16.09 Mostly Cloudy BKN012 BKN034 10 9 94% 7 76.2 1016.0
30 03:55 NE 13 16.09 Mostly Cloudy BKN010 8.6 7.9 9.2 8 95% 7 76.23 1016.5
30 02:55 Vrbl 9 16.09 Overcast OVC009 9 8 94% 8 76.25 1016.8
28 09:55 NE 33 G 44 16.09 Mostly Cloudy and Breezy BKN016 11.9 10.2 11.9 10.4 89% 74.88 998.2 0.03 0.05
28 08:55 NE 22 G 41 16.09 Overcast OVC008 12 11 94% 74.88 998.3
Date Time (akdt) Wind (kph) Vis. (km) Weather Sky Cond. Air Dwpt Max. Min. Relative Humidity Wind Chill (°C) Heat Index (°C) altimeter (cm) sea level (mb) 1 hr 3 hr 6 hr
6 hour
Temperature (ºC) Pressure Precipitation (cm)